Virginia Beach, VA

10:15 PM EST on December 03, 2016 (GMT -0500)
Norfolk International

Weather History for KORF - May, 2013

Change the Weather History Date:

Thursday, May 9, 2013

  Actual Average Record
Temperature  
Mean Temperature 68 °F 65 °F  
Max Temperature 79 °F 74 °F 94 °F (1963)
Min Temperature 56 °F 56 °F 36 °F (1956)
Degree Days  
Heating Degree Days 0 3  
Month to date heating degree days 44 33  
Since 1 July heating degree days 3243 3333  
Cooling Degree Days 3 3  
Month to date cooling degree days 3 21  
Year to date cooling degree days 69 65  
Growing Degree Days 17 (Base 50)    
Moisture  
Dew Point 55 °F    
Average Humidity 65    
Maximum Humidity 93    
Minimum Humidity 36    
Precipitation  
Precipitation 0.00 in 0.10 in 1.92 in (1929)
Month to date precipitation 0.39 0.93  
Year to date precipitation 13.66 14.54  
Snow  
Snow 0.00 in 0.00 in 0.00 in (2002)
Month to date snowfall 0.0 0.0  
Since 1 July snowfall 1.8 5.8  
Snow Depth 0.00 in    
Sea Level Pressure  
Sea Level Pressure 29.98 in    
Wind  
Wind Speed 5 mph (WSW)    
Max Wind Speed 14 mph    
Max Gust Speed 23 mph    
Visibility 10 miles    
Events      
T = Trace of Precipitation, MM = Missing Value Source: NWS Daily Summary

Daily Weather History Graph

Daily Weather History Graph

Search for Another Location

Airport or City:

Trip Planner

Search our weather history database for the weather conditions in past years. The results will help you decide how hot, cold, wet, or windy it might be!

Date:

Astronomy

May. 09, 2013 Rise Set
Actual Time 6:02 AM EDT 8:00 PM EDT
Civil Twilight 5:33 AM EDT 8:29 PM EDT
Nautical Twilight 4:58 AM EDT 9:04 PM EDT
Astronomical Twilight 4:21 AM EDT 9:41 PM EDT
Moon 5:44 AM EDT (5/9) 7:54 PM EDT (5/9)
Length of Visible Light 14h 55m
Length of Day
13h 58m
Waning Crescent, 0% of the Moon is Illuminated
May 9
Waning Crescent
May 9
New
May 18
First Quarter
May 25
Full
May 31
Last Quarter

Hourly Weather History & Observations

Time (EDT) Temp. Dew Point Humidity Pressure Visibility Wind Dir Wind Speed Gust Speed Precip Events Conditions
12:51 AM 62.1 °F 59.0 °F 90% 29.96 in 10.0 mi WSW 3.5 mph - 0.01 in   Mostly Cloudy
1:51 AM 60.1 °F 57.9 °F 93% 29.94 in 10.0 mi SW 4.6 mph - N/A   Mostly Cloudy
2:51 AM 61.0 °F 57.9 °F 90% 29.95 in 10.0 mi WSW 5.8 mph - N/A   Mostly Cloudy
2:58 AM 62.6 °F 57.2 °F 82% 29.95 in 10.0 mi West 6.9 mph - N/A   Overcast
3:07 AM 62.6 °F 57.2 °F 82% 29.95 in 10.0 mi West 5.8 mph - N/A   Overcast
3:23 AM 60.8 °F 57.2 °F 88% 29.94 in 10.0 mi West 6.9 mph - N/A   Mostly Cloudy
3:33 AM 60.8 °F 57.2 °F 88% 29.94 in 10.0 mi West 4.6 mph - N/A   Partly Cloudy
3:51 AM 60.1 °F 55.9 °F 86% 29.94 in 10.0 mi West 4.6 mph - N/A   Clear
4:51 AM 57.0 °F 54.0 °F 89% 29.95 in 10.0 mi SW 3.5 mph - N/A   Clear
5:51 AM 57.9 °F 54.0 °F 87% 29.96 in 10.0 mi WSW 3.5 mph - N/A   Clear
6:51 AM 57.0 °F 55.0 °F 93% 29.99 in 10.0 mi West 4.6 mph - N/A   Clear
7:33 AM 59.0 °F 55.4 °F 88% 29.99 in 10.0 mi West 4.6 mph - N/A   Partly Cloudy
7:51 AM 60.1 °F 55.0 °F 83% 30.00 in 10.0 mi WSW 5.8 mph - N/A   Partly Cloudy
8:51 AM 63.0 °F 55.9 °F 78% 30.01 in 10.0 mi SW 8.1 mph - N/A   Clear
9:51 AM 64.9 °F 55.0 °F 70% 30.02 in 10.0 mi SW 6.9 mph - N/A   Clear
10:51 AM 69.1 °F 55.0 °F 61% 30.01 in 10.0 mi WSW 10.4 mph - N/A   Clear
11:51 AM 72.0 °F 55.0 °F 55% 30.01 in 10.0 mi WNW 6.9 mph - N/A   Clear
12:51 PM 75.0 °F 52.0 °F 44% 30.00 in 10.0 mi West 6.9 mph - N/A   Clear
1:51 PM 77.0 °F 48.9 °F 37% 29.99 in 10.0 mi Variable 5.8 mph - N/A   Clear
2:51 PM 75.9 °F 48.9 °F 38% 29.98 in 10.0 mi Variable 5.8 mph - N/A   Partly Cloudy
3:51 PM 77.0 °F 50.0 °F 39% 29.97 in 10.0 mi WSW 4.6 mph 16.1 mph N/A   Scattered Clouds
4:51 PM 79.0 °F 52.0 °F 39% 29.97 in 10.0 mi WNW 5.8 mph 16.1 mph N/A   Partly Cloudy
5:51 PM 78.1 °F 51.1 °F 39% 29.97 in 10.0 mi WNW 6.9 mph - N/A   Clear
6:51 PM 78.1 °F 52.0 °F 40% 29.98 in 10.0 mi Variable 3.5 mph - N/A   Mostly Cloudy
7:51 PM 75.0 °F 53.1 °F 46% 29.99 in 10.0 mi Calm Calm - N/A   Clear
8:51 PM 70.0 °F 57.9 °F 65% 30.01 in 10.0 mi Calm Calm - N/A   Clear
9:51 PM 66.2 °F 57.2 °F 73% 30.03 in 10.0 mi Calm Calm - N/A   Clear
10:51 PM 66.0 °F 55.9 °F 70% 30.04 in 10.0 mi SSW 3.5 mph - N/A   Clear
11:51 PM 64.0 °F 55.9 °F 75% 30.04 in 10.0 mi SSW 4.6 mph - N/A   Clear